timestamp,surface_pressure_avg,surface_temp_avg,battery_voltage,lat,long
2022-03-10 00:09:01+00:00,288.3713,1.2,11.93,47.84626,-54.09684
2022-03-10 00:19:00+00:00,283.2664,1.19,11.93,47.84626,-54.09684
2022-03-10 00:29:00+00:00,284.8414,1.16,11.93,47.84626,-54.09684
2022-03-10 00:39:00+00:00,289.7997,1.1,11.93,47.84626,-54.09684
2022-03-10 00:49:00+00:00,289.1481,1.09,11.93,47.84626,-54.09684
2022-03-10 00:59:00+00:00,290.2897,1.0,11.93,47.84626,-54.09684
2022-03-10 01:09:00+00:00,294.5264,1.0,11.93,47.84626,-54.09684
2022-03-10 01:19:01+00:00,296.8047,0.9,11.93,47.84626,-54.09684
2022-03-10 01:29:01+00:00,293.388,0.94,11.93,47.84626,-54.09684
2022-03-10 01:39:01+00:00,293.8847,0.94,11.93,47.84626,-54.09684
2022-03-10 01:49:01+00:00,296.5747,0.91,11.93,47.84626,-54.09684
2022-03-10 01:59:01+00:00,296.7447,0.9,11.93,47.84626,-54.09684
2022-03-10 02:09:01+00:00,298.9114,0.9,11.93,47.84626,-54.09684
2022-03-10 02:19:01+00:00,302.983,0.99,11.93,47.84626,-54.09684
2022-03-10 02:29:01+00:00,303.3564,1.07,11.93,47.84626,-54.09684
2022-03-10 02:39:01+00:00,304.538,1.1,11.93,47.84626,-54.09684
2022-03-10 02:49:01+00:00,307.4547,1.15,11.93,47.84626,-54.09684
2022-03-10 02:59:01+00:00,312.093,1.25,11.93,47.84626,-54.09684
2022-03-10 03:09:01+00:00,313.1146,1.35,11.93,47.84626,-54.09684
2022-03-10 03:19:00+00:00,318.3297,1.4,11.93,47.84626,-54.09684
2022-03-10 03:29:00+00:00,324.1113,1.4,11.93,47.84626,-54.09684
2022-03-10 03:39:00+00:00,319.9247,1.4,11.93,47.84626,-54.09684
2022-03-10 03:49:00+00:00,318.5446,1.36,11.93,47.84626,-54.09684
2022-03-10 03:59:00+00:00,324.6896,1.3,11.93,47.84626,-54.09684
2022-03-10 04:09:00+00:00,330.2763,1.2,11.93,47.84626,-54.09684
2022-03-10 04:19:00+00:00,329.3529,1.17,11.93,47.84626,-54.09684
2022-03-10 04:29:00+00:00,329.6763,1.1,11.93,47.84626,-54.09684
2022-03-10 04:39:00+00:00,330.7013,1.09,11.93,47.84626,-54.09684
2022-03-10 04:49:00+00:00,326.4996,1.0,11.93,47.84626,-54.09684
2022-03-10 04:59:00+00:00,325.578,0.9,11.93,47.84626,-54.09684
2022-03-10 05:09:00+00:00,326.8663,0.9,11.93,47.84626,-54.09684
2022-03-10 05:19:01+00:00,326.2947,0.88,11.93,47.84626,-54.09684
2022-03-10 05:29:01+00:00,327.4996,0.9,11.93,47.84626,-54.09684
2022-03-10 05:39:01+00:00,329.0064,0.9,11.93,47.84626,-54.09684
2022-03-10 05:49:01+00:00,330.728,0.95,11.93,47.84626,-54.09684
2022-03-10 05:59:01+00:00,330.7963,1.1,11.93,47.84626,-54.09684
2022-03-10 06:09:01+00:00,326.768,1.14,11.93,47.84626,-54.09684
2022-03-10 06:19:01+00:00,323.4464,1.2,11.93,47.84626,-54.09684
2022-03-10 06:29:01+00:00,320.4847,1.3,11.93,47.84626,-54.09684
2022-03-10 06:39:01+00:00,317.7963,1.2,11.93,47.84626,-54.09684
2022-03-10 06:49:01+00:00,310.0314,1.1,11.93,47.84626,-54.09684
2022-03-10 06:59:01+00:00,305.9864,0.8,11.93,47.84626,-54.09684
2022-03-10 07:09:01+00:00,303.0698,0.71,11.93,47.84626,-54.09684
2022-03-10 07:19:00+00:00,301.3914,0.6,11.93,47.84626,-54.09684
2022-03-10 07:29:00+00:00,290.9414,0.47,11.93,47.84626,-54.09684
2022-03-10 07:39:00+00:00,282.6431,0.3,11.93,47.84626,-54.09684
2022-03-10 07:49:00+00:00,278.2364,0.28,11.93,47.84626,-54.09684
2022-03-10 07:59:00+00:00,282.3514,0.2,11.93,47.84626,-54.09684
2022-03-10 08:09:00+00:00,267.7514,0.2,11.93,47.84626,-54.09684
2022-03-10 08:19:01+00:00,258.4964,0.2,11.93,47.84626,-54.09684
2022-03-10 08:29:01+00:00,259.8347,0.2,11.93,47.84626,-54.09684
2022-03-10 08:39:01+00:00,255.2097,0.2,11.93,47.84626,-54.09684
2022-03-10 08:49:01+00:00,242.2531,0.2,11.93,47.84626,-54.09684
2022-03-10 08:59:01+00:00,237.6714,0.2,11.93,47.84626,-54.09684
2022-03-10 09:09:01+00:00,238.0964,0.2,11.93,47.84626,-54.09684
2022-03-10 09:19:01+00:00,228.9998,0.2,11.86,47.84626,-54.09684
2022-03-10 09:29:01+00:00,221.0615,0.2,11.86,47.84626,-54.09684
2022-03-10 09:39:01+00:00,221.9564,0.2,11.86,47.84626,-54.09684
2022-03-10 09:49:01+00:00,221.5247,0.28,11.86,47.84626,-54.09684
2022-03-10 09:59:01+00:00,213.2431,0.3,11.86,47.84626,-54.09684
2022-03-10 10:09:01+00:00,210.1765,0.37,11.86,47.84626,-54.09684
2022-03-10 10:19:00+00:00,220.8748,0.4,11.86,47.84626,-54.09684
2022-03-10 10:29:00+00:00,228.1148,0.4,11.86,47.84626,-54.09684
2022-03-10 10:39:00+00:00,221.6581,0.37,11.86,47.84626,-54.09684
2022-03-10 10:49:00+00:00,221.8397,0.29,11.86,47.84626,-54.09684
2022-03-10 10:59:00+00:00,231.9064,0.27,11.86,47.84626,-54.09684
2022-03-10 11:09:00+00:00,235.4181,0.2,11.86,47.84626,-54.09684
2022-03-10 11:19:00+00:00,233.2548,0.2,12.01,47.84626,-54.09684
2022-03-10 11:29:00+00:00,231.4298,0.2,12.01,47.84626,-54.09684
2022-03-10 11:39:00+00:00,233.5497,0.2,12.01,47.84626,-54.09684
2022-03-10 11:49:00+00:00,238.4981,0.21,12.01,47.84626,-54.09684
2022-03-10 11:59:00+00:00,245.6147,0.3,12.01,47.84626,-54.09684
2022-03-10 12:09:00+00:00,246.0531,0.3,12.01,47.84626,-54.09684
2022-03-10 12:19:00+00:00,246.3214,0.0,12.25,47.84626,-54.09684
2022-03-10 12:29:00+00:00,251.5797,-0.01,12.25,47.84626,-54.09684
2022-03-10 12:39:00+00:00,248.0848,0.05,12.25,47.84626,-54.09684
2022-03-10 12:49:00+00:00,241.6781,0.0,12.25,47.84626,-54.09684
2022-03-10 12:59:00+00:00,241.3664,0.0,12.25,47.84626,-54.09684
2022-03-10 13:09:00+00:00,248.6098,0.07,12.25,47.84626,-54.09684
2022-03-10 13:19:01+00:00,253.1897,0.1,12.41,47.84626,-54.09684
2022-03-10 13:29:01+00:00,253.1297,-0.04,12.41,47.84626,-54.09684
2022-03-10 13:39:01+00:00,254.4747,-0.1,12.41,47.84626,-54.09684
2022-03-10 13:49:01+00:00,257.9114,-0.2,12.41,47.84626,-54.09684
2022-03-10 13:59:01+00:00,251.0897,-0.21,12.41,47.84626,-54.09684
2022-03-10 14:09:01+00:00,249.9063,-0.21,12.41,47.84626,-54.09684
2022-03-10 14:19:00+00:00,260.9381,-0.07,12.17,47.84626,-54.09684
2022-03-10 14:29:00+00:00,269.6448,0.09,12.17,47.84626,-54.09684
2022-03-10 14:39:00+00:00,262.9648,0.1,12.17,47.84626,-54.09684
2022-03-10 14:49:00+00:00,261.6597,0.1,12.17,47.84626,-54.09684
2022-03-10 14:59:00+00:00,268.1047,0.1,12.17,47.84626,-54.09684
2022-03-10 15:09:00+00:00,273.9314,0.11,12.17,47.84626,-54.09684
2022-03-10 15:19:01+00:00,277.2098,0.2,12.09,47.84626,-54.09684
2022-03-10 15:29:01+00:00,282.2614,0.2,12.09,47.84626,-54.09684
2022-03-10 15:39:01+00:00,285.5863,0.2,12.09,47.84626,-54.09684
2022-03-10 15:49:01+00:00,287.478,0.2,12.09,47.84626,-54.09684
2022-03-10 15:59:01+00:00,289.4847,0.2,12.09,47.84626,-54.09684
2022-03-10 16:09:01+00:00,289.6964,0.36,12.09,47.84626,-54.09684
2022-03-10 16:19:01+00:00,289.2497,0.5,12.09,47.84626,-54.09684
2022-03-10 16:29:01+00:00,292.108,0.4,12.09,47.84626,-54.09684
2022-03-10 16:39:01+00:00,297.603,0.4,12.09,47.84626,-54.09684
2022-03-10 16:49:01+00:00,298.3881,0.5,12.09,47.84626,-54.09684
2022-03-10 16:59:01+00:00,298.728,0.5,12.09,47.84626,-54.09684
2022-03-10 17:09:01+00:00,298.1296,0.5,12.09,47.84626,-54.09684
2022-03-10 17:19:00+00:00,300.5264,0.57,12.09,47.84626,-54.09684
2022-03-10 17:29:00+00:00,300.3047,0.68,12.09,47.84626,-54.09684
2022-03-10 17:39:00+00:00,303.098,0.7,12.09,47.84626,-54.09684
2022-03-10 17:49:00+00:00,307.798,0.69,12.09,47.84626,-54.09684
2022-03-10 17:59:00+00:00,302.4614,0.7,12.09,47.84626,-54.09684
2022-03-10 18:09:00+00:00,295.4514,0.69,12.09,47.84626,-54.09684
2022-03-10 18:19:01+00:00,292.4364,0.7,12.01,47.84626,-54.09684
2022-03-10 18:29:01+00:00,293.8781,0.7,12.01,47.84626,-54.09684
2022-03-10 18:39:01+00:00,293.2813,0.8,12.01,47.84626,-54.09684
2022-03-10 18:49:01+00:00,286.6047,0.8,12.01,47.84626,-54.09684
2022-03-10 18:59:01+00:00,281.363,0.8,12.01,47.84626,-54.09684
2022-03-10 19:09:01+00:00,276.0298,0.84,12.01,47.84626,-54.09684
2022-03-10 19:19:01+00:00,278.3448,0.89,12.01,47.84626,-54.09684
2022-03-10 19:29:01+00:00,275.6414,0.9,12.01,47.84626,-54.09684
2022-03-10 19:39:01+00:00,270.8848,0.9,12.01,47.84626,-54.09684
2022-03-10 19:49:01+00:00,264.0147,0.9,12.01,47.84626,-54.09684
2022-03-10 19:59:01+00:00,260.7181,0.96,12.01,47.84626,-54.09684
2022-03-10 20:09:01+00:00,259.2814,1.0,12.01,47.84626,-54.09684
2022-03-10 20:19:00+00:00,253.7331,1.05,12.01,47.84626,-54.09684
2022-03-10 20:29:00+00:00,241.8097,1.1,12.01,47.84626,-54.09684
2022-03-10 20:39:00+00:00,236.7731,1.1,12.01,47.84626,-54.09684
2022-03-10 20:49:00+00:00,243.6548,1.1,12.01,47.84626,-54.09684
2022-03-10 20:59:00+00:00,242.2064,1.09,12.01,47.84626,-54.09684
2022-03-10 21:09:00+00:00,234.7031,1.0,12.01,47.84626,-54.09684
2022-03-10 21:19:01+00:00,229.4731,1.0,12.01,47.84626,-54.09684
2022-03-10 21:29:01+00:00,232.5815,1.0,12.01,47.84626,-54.09684
2022-03-10 21:39:01+00:00,229.3647,1.0,12.01,47.84626,-54.09684
2022-03-10 21:49:01+00:00,226.1564,1.0,12.01,47.84626,-54.09684
2022-03-10 21:59:01+00:00,230.5864,0.99,12.01,47.84626,-54.09684
2022-03-10 22:09:01+00:00,229.6931,0.99,12.01,47.84626,-54.09684
2022-03-10 22:19:01+00:00,221.7515,0.96,12.01,47.84626,-54.09684
2022-03-10 22:29:01+00:00,216.3681,0.9,12.01,47.84626,-54.09684
2022-03-10 22:39:01+00:00,219.0515,0.9,12.01,47.84626,-54.09684
2022-03-10 22:49:01+00:00,222.0031,0.9,12.01,47.84626,-54.09684
2022-03-10 22:59:01+00:00,225.8898,0.9,12.01,47.84626,-54.09684
2022-03-10 23:09:01+00:00,224.2881,0.82,12.01,47.84626,-54.09684
2022-03-10 23:19:00+00:00,226.4598,0.8,11.93,47.84626,-54.09684
2022-03-10 23:29:00+00:00,233.7747,0.76,11.93,47.84626,-54.09684
2022-03-10 23:39:00+00:00,234.1797,0.7,11.93,47.84626,-54.09684
2022-03-10 23:49:00+00:00,234.8148,0.7,11.93,47.84626,-54.09684
2022-03-10 23:59:00+00:00,238.8331,0.7,11.93,47.84626,-54.09684
